[[{"header":{"parameterUnit":"m.s-1","parameterCategory":1,"la1":30.2991,"la2":30.254,"lo1":-89.0895,"lo2":-89.0444,"dy":0.0017,"dx":0.0017,"nx":28,"ny":28,"refTime":"2024-03-28T09:00:00:Z","depth":0,"parameterNumber":2,"parameterNumberName":"U-component_of_WINDS"},"data":[0,0,0,0,0,0,0,0,0,0,0,0,0,0,0,0,0,0,0,0,0,0,0,0,0,0,0,0,0,0,0,0,0,0,0,0,0,0,0,0,0,0,0,0,0,0,0,0,0,0,0,0,0,0,0,0,0,0,0.0478,0.0477,0,0.0469,0.0469,0.0469,0.0448,0.0448,0.0447,0.0447,0.0438,0.0438,0.0438,0,0,0,0,0,0,0,0,0,0,0,0,0,0.0478,0.0478,0.0478,0.0477,0.0477,0.0469,0.0469,0.0469,0.0448,0.0448,0.0447,0.0447,0.0438,0.0438,0.0438,0,0,0,0,0,0,0,0,0,0,0,0,0,0.0474,0.0478,0.0478,0.0466,0.0465,0.0469,0.0469,0.0468,0.0448,0.0448,0.0447,0.0447,0.0438,0.0438,0.0438,0.0452,0,0,0.0439,0.0439,0,0,0,0,0,0,0,0,0.0474,0.0474,0.0468,0.0467,0.0466,0.0459,0.0465,0.0463,0.0449,0.0455,0.0447,0.0446,0.0445,0.0445,0.0444,0.0451,0.0451,0.0439,0.0439,0.0439,0.0439,0,0,0,0,0,0,0,0.0475,0.0474,0.0474,0.0468,0.0467,0.0462,0.0461,0.0465,0.0454,0.0454,0.0453,0.0452,0.0444,0.0444,0.0444,0.0451,0.0439,0.0439,0.0439,0.0439,0.047,0.0471,0,0,0,0,0,0,0.0476,0.0475,0.0474,0.0474,0.0469,0.0462,0.0461,0.0462,0.0453,0.0452,0.0452,0.0451,0.0444,0.0444,0.0444,0.046,0.0439,0.0439,0.0439,0.0469,0.047,0.0471,0,0,0,0,0,0,0.0476,0.0477,0.0475,0.0474,0.0473,0.0463,0.0464,0.0462,0.0462,0.0452,0.045,0.0454,0.0444,0.0443,0.045,0.0459,0.0439,0.0439,0.0468,0.047,0.0471,0.0493,0,0,0,0,0,0,0.0477,0.0477,0.0482,0.0474,0.0473,0.0481,0.0465,0.0462,0.0462,0.046,0.0453,0.0452,0.0443,0.045,0.045,0.0459,0.0439,0.0468,0.0469,0.047,0.0491,0.0494,0.0497,0,0,0,0,0,0.0477,0.0488,0.0482,0.0482,0.0479,0.0482,0.0481,0.0472,0.0463,0.0468,0.0462,0.0452,0.0459,0.0451,0.0451,0.046,0.0467,0.0469,0.047,0.049,0.0494,0.0497,0,0,0,0,0,0,0.0496,0.0486,0.048,0.0489,0.0486,0.0478,0.0484,0.0476,0.0475,0.0474,0.0461,0.046,0.0469,0.0465,0.0457,0.0474,0.0461,0.0463,0.0476,0.048,0.0483,0.0483,0.044,0,0,0,0,0,0.0501,0.0504,0.0496,0.0505,0.0504,0.0494,0.0495,0.0488,0.0485,0.0483,0.0478,0.0475,0.0477,0.0478,0.0479,0.0491,0.0489,0.0497,0.05,0.0503,0.0504,0.0511,0.0515,0.0476,0.0476,0.0476,0,0,0.0512,0.0508,0.051,0.0508,0.0505,0.0509,0.0493,0.0497,0.05,0.0484,0.049,0.0486,0.0483,0.0492,0.0496,0.049,0.0515,0.0505,0.0507,0.0507,0.0513,0.0517,0.052,0.0477,0.0477,0.0477,0,0,0.0534,0.0531,0.0538,0.0536,0.0532,0.0526,0.0528,0.0522,0.0519,0.0525,0.0513,0.0516,0.0519,0.0517,0.0517,0.054,0.0531,0.0541,0.0556,0.0563,0.0566,0.0569,0.0578,0.0581,0.0542,0.0542,0.0542,0,0.0548,0.0553,0.0543,0.0548,0.0548,0.0534,0.0542,0.0541,0.0537,0.0538,0.053,0.0535,0.0531,0.0541,0.0547,0.0546,0.0549,0.0541,0.0567,0.0569,0.0572,0.058,0.0584,0.0543,0.0543,0.0543,0.0543,0,0.0571,0.0574,0.0581,0.0579,0.0579,0.0586,0.0577,0.058,0.0573,0.0568,0.0575,0.0571,0.0571,0.0573,0.0566,0.0582,0.0578,0.0569,0.0556,0.0577,0.0585,0.0588,0.0545,0.0545,0.0544,0.0544,0,0,0.0603,0.0597,0.0599,0.0599,0.0594,0.0597,0.0603,0.0604,0.0607,0.0605,0.0611,0.0614,0.0606,0.0606,0.0599,0.0605,0.0625,0.0595,0.0595,0.0601,0.0643,0.065,0.0654,0.0619,0.0619,0.062,0.0644,0,0.0624,0.0635,0.0627,0.0639,0.0642,0.063,0.0636,0.0634,0.063,0.0633,0.0628,0.0631,0.062,0.062,0.0626,0.0621,0.0633,0.0619,0.0624,0.0624,0.0626,0.0658,0.0665,0.0688,0.0647,0.0647,0.0647,0,0.0649,0.065,0.0663,0.0659,0.066,0.0665,0.0666,0.0669,0.0667,0.0664,0.0664,0.0656,0.0663,0.065,0.066,0.065,0.0652,0.065,0.0651,0.0651,0.0637,0.0659,0.0694,0.0698,0.0652,0.0652,0.0651,0,0.0673,0.0677,0.0685,0.0685,0.068,0.0685,0.0683,0.068,0.0682,0.0683,0.0684,0.0685,0.0686,0.0688,0.0681,0.0672,0.0691,0.0678,0.0689,0.0689,0.0693,0.0693,0.073,0.0694,0.0694,0.0694,0.0694,0,0.0697,0.0705,0.0696,0.0701,0.071,0.0701,0.0711,0.0708,0.0706,0.0711,0.0701,0.0705,0.0696,0.07,0.0694,0.0703,0.0704,0.0701,0.07,0.0702,0.0703,0.0703,0.0702,0.0695,0.0695,0.0695,0.0695,0,0.0724,0.0718,0.0726,0.0722,0.0721,0.0728,0.0725,0.073,0.0725,0.0732,0.0733,0.0726,0.073,0.0724,0.0727,0.0723,0.0736,0.0732,0.0737,0.0736,0.0748,0.0747,0.0786,0.0791,0.0752,0.0753,0.0753,0,0.074,0.0746,0.0743,0.0746,0.0745,0.0749,0.0751,0.0743,0.0745,0.0744,0.075,0.0753,0.0756,0.0763,0.0759,0.0762,0.0758,0.0772,0.0758,0.0761,0.0759,0.0759,0.076,0.0774,0.0775,0.0775,0.0775,0,0.0769,0.0766,0.0769,0.0771,0.0774,0.0775,0.0776,0.0779,0.077,0.0774,0.0778,0.078,0.0784,0.0788,0.079,0.0789,0.0781,0.078,0.0783,0.0785,0.0788,0.0787,0.0745,0.0779,0.0778,0.0778,0.0778,0.0778,0.0791,0.0797,0.0796,0.08,0.08,0.0801,0.0806,0.0803,0.0806,0.0809,0.0804,0.081,0.081,0.0812,0.0812,0.0817,0.0811,0.0815,0.0816,0.0817,0.0819,0.0787,0.0817,0.0817,0.0817,0.0817,0.0817,0,0.082,0.0819,0.0823,0.0825,0.0828,0.0821,0.0822,0.0825,0.0831,0.0831,0.0834,0.084,0.0844,0.0841,0.0845,0.085,0.0846,0.0851,0.085,0.0851,0.0824,0.0821,0.0854,0.0854,0.0854,0.0854,0.0854,0.0854,0.0835,0.0845,0.0842,0.0852,0.0851,0.0857,0.0858,0.0859,0.086,0.0867,0.0871,0.0869,0.0868,0.0872,0.0876,0.0875,0.0877,0.0883,0.0881,0.0856,0.0852,0.0849,0.0846,0.0883,0.0883,0.0907,0.0907,0.0907]},{"header":{"parameterUnit":"m.s-1","parameterCategory":1,"la1":30.2991,"la2":30.254,"lo1":-89.0895,"lo2":-89.0444,"dy":0.0017,"dx":0.0017,"nx":28,"ny":28,"refTime":"2024-03-28T09:00:00:Z","depth":0,"parameterNumber":3,"parameterNumberName":"V-component_of_WINDS"},"data":[0,0,0,0,0,0,0,0,0,0,0,0,0,0,0,0,0,0,0,0,0,0,0,0,0,0,0,0,0,0,0,0,0,0,0,0,0,0,0,0,0,0,0,0,0,0,0,0,0,0,0,0,0,0,0,0,0,0,-6.959,-6.9592,0,-6.9703,-6.9704,-6.9705,-6.9677,-6.9675,-6.9672,-6.967,-6.9778,-6.9783,-6.9788,0,0,0,0,0,0,0,0,0,0,0,0,0,-6.9345,-6.935,-6.959,-6.9592,-6.9593,-6.9703,-6.9704,-6.9706,-6.9677,-6.9675,-6.9672,-6.9669,-6.9776,-6.9782,-6.9788,0,0,0,0,0,0,0,0,0,0,0,0,0,-6.9454,-6.9351,-6.959,-6.9592,-6.9594,-6.9702,-6.9704,-6.9706,-6.9678,-6.9674,-6.9671,-6.9668,-6.9774,-6.9782,-6.9789,-6.99,0,0,-6.9811,-6.9814,0,0,0,0,0,0,0,0,-6.9448,-6.9463,-6.9591,-6.9592,-6.9594,-6.9673,-6.9657,-6.9771,-6.9679,-6.9646,-6.967,-6.9667,-6.9745,-6.9755,-6.9783,-6.9905,-6.9909,-6.9812,-6.9816,-6.982,-6.9822,0,0,0,0,0,0,0,-6.944,-6.9458,-6.9634,-6.9592,-6.9595,-6.9586,-6.9598,-6.9678,-6.9712,-6.9648,-6.9646,-6.9661,-6.9745,-6.9776,-6.9785,-6.9911,-6.9812,-6.9818,-6.9823,-6.9826,-7.0131,-7.0135,0,0,0,0,0,0,-6.9432,-6.9452,-6.9631,-6.9638,-6.9512,-6.9593,-6.9606,-6.965,-6.9711,-6.9717,-6.9663,-6.9659,-6.9765,-6.9776,-6.9789,-6.9924,-6.9819,-6.9826,-6.9831,-7.0128,-7.0132,-7.0136,0,0,0,0,0,0,-6.9427,-6.9449,-6.9626,-6.9545,-6.9567,-6.9601,-6.9651,-6.9654,-6.9685,-6.9723,-6.9728,-6.9689,-6.9763,-6.9778,-6.9873,-6.9927,-6.983,-6.9836,-7.0123,-7.0129,-7.0134,-7.0194,0,0,0,0,0,0,-6.942,-6.9447,-6.949,-6.9546,-6.9571,-6.9711,-6.9654,-6.9659,-6.9699,-6.9694,-6.9748,-6.9753,-6.9761,-6.9863,-6.9881,-6.9935,-6.9842,-7.0119,-7.0126,-7.0132,-7.0188,-7.0201,-7.0213,0,0,0,0,0,-6.9412,-6.9501,-6.9493,-6.9515,-6.9627,-6.9714,-6.9728,-6.9738,-6.9703,-6.9746,-6.9771,-6.9752,-6.9918,-6.9872,-6.9893,-6.995,-7.0115,-7.0124,-7.0132,-7.0182,-7.0199,-7.0213,0,0,0,0,0,0,-6.9447,-6.9508,-6.95,-6.961,-6.9658,-6.9709,-6.9764,-6.9755,-6.9811,-6.9804,-6.9811,-6.9823,-6.9921,-6.9945,-6.9893,-7.0062,-7.0011,-7.0024,-7.0043,-7.0059,-7.0071,-7.0063,-6.9848,0,0,0,0,0,-6.9469,-6.9537,-6.9585,-6.9678,-6.9702,-6.973,-6.9768,-6.9772,-6.982,-6.9839,-6.987,-6.9916,-6.9979,-7.002,-7.008,-7.0191,-7.0203,-7.0241,-7.0253,-7.0264,-7.0275,-7.0337,-7.0354,-7.0164,-7.0164,-7.0163,0,0,-6.9512,-6.9554,-6.9596,-6.9686,-6.9723,-6.9793,-6.9746,-6.9821,-6.9872,-6.9849,-6.9942,-6.9967,-7.0018,-7.0123,-7.017,-7.0146,-7.033,-7.0274,-7.0282,-7.0288,-7.0347,-7.0365,-7.0381,-7.0169,-7.0168,-7.0167,0,0,-6.9627,-6.9666,-6.9748,-6.9787,-6.9846,-6.9864,-6.9884,-6.9938,-6.9955,-7.0049,-7.0034,-7.0093,-7.0201,-7.0239,-7.0273,-7.0406,-7.039,-7.0424,-7.049,-7.0551,-7.0566,-7.0579,-7.0627,-7.0644,-7.0435,-7.0435,-7.0435,0,-6.9673,-6.9779,-6.9791,-6.9868,-6.9908,-6.9895,-6.9978,-7.0014,-7.0088,-7.0116,-7.0088,-7.0225,-7.0259,-7.0372,-7.0405,-7.0432,-7.0455,-7.0418,-7.0563,-7.0577,-7.0589,-7.0635,-7.0653,-7.0439,-7.0439,-7.0438,-7.0438,0,-6.9833,-6.9907,-6.9966,-7.0042,-7.0089,-7.0168,-7.0191,-7.0236,-7.0236,-7.0257,-7.0353,-7.0393,-7.0462,-7.0489,-7.0488,-7.0604,-7.0587,-7.0561,-7.0511,-7.0611,-7.0655,-7.0672,-7.0445,-7.0443,-7.0442,-7.0441,0,0,-6.9972,-7.0056,-7.0078,-7.0113,-7.0178,-7.0234,-7.0313,-7.0383,-7.0423,-7.0474,-7.054,-7.0633,-7.0611,-7.0649,-7.0653,-7.0706,-7.081,-7.0673,-7.0675,-7.0698,-7.094,-7.096,-7.098,-7.08,-7.0804,-7.0806,-7.0936,0,-7.0094,-7.0236,-7.025,-7.0377,-7.0445,-7.0435,-7.0504,-7.055,-7.0572,-7.0631,-7.0654,-7.0721,-7.0686,-7.0709,-7.0761,-7.0786,-7.0858,-7.0777,-7.0861,-7.0863,-7.0849,-7.1002,-7.1023,-7.1144,-7.0953,-7.0956,-7.0958,0,-7.0254,-7.0315,-7.045,-7.0508,-7.0537,-7.0599,-7.0665,-7.0723,-7.0775,-7.0787,-7.0832,-7.0829,-7.0909,-7.0856,-7.0967,-7.0911,-7.0946,-7.0964,-7.0968,-7.0977,-7.0917,-7.1015,-7.1182,-7.12,-7.0985,-7.0983,-7.0981,0,-7.0343,-7.0458,-7.0555,-7.0585,-7.0654,-7.0698,-7.0729,-7.0778,-7.082,-7.0878,-7.0905,-7.097,-7.1006,-7.1055,-7.107,-7.103,-7.118,-7.1128,-7.1191,-7.1191,-7.1223,-7.1221,-7.1399,-7.1245,-7.1245,-7.1245,-7.1244,0,-7.0478,-7.0561,-7.0596,-7.0655,-7.0748,-7.0763,-7.0853,-7.0881,-7.0926,-7.0989,-7.0982,-7.1041,-7.1057,-7.1118,-7.113,-7.122,-7.1235,-7.1247,-7.1249,-7.1248,-7.1246,-7.1271,-7.1263,-7.1249,-7.1248,-7.1247,-7.1247,0,-7.0593,-7.062,-7.0724,-7.0783,-7.08,-7.0866,-7.0915,-7.0971,-7.0993,-7.1073,-7.1093,-7.1126,-7.1198,-7.1218,-7.1303,-7.1311,-7.1418,-7.1411,-7.1401,-7.1401,-7.1464,-7.1458,-7.1664,-7.1692,-7.1519,-7.1521,-7.1522,0,-7.0677,-7.0741,-7.0808,-7.0852,-7.0886,-7.0955,-7.1,-7.1017,-7.1063,-7.1129,-7.1177,-7.125,-7.1308,-7.1424,-7.1454,-7.152,-7.1516,-7.1583,-7.1525,-7.1523,-7.1518,-7.1514,-7.1521,-7.1594,-7.1596,-7.1597,-7.1598,0,-7.0824,-7.0835,-7.0901,-7.0972,-7.1026,-7.1082,-7.1136,-7.1171,-7.1196,-7.1248,-7.1324,-7.137,-7.1459,-7.1531,-7.1598,-7.1627,-7.1617,-7.1617,-7.1635,-7.1635,-7.1627,-7.1633,-7.1432,-7.1612,-7.161,-7.161,-7.1609,-7.1608,-7.0927,-7.0984,-7.1042,-7.1116,-7.1159,-7.121,-7.1267,-7.1297,-7.1362,-7.1438,-7.1444,-7.1526,-7.1578,-7.1668,-7.1701,-7.1764,-7.1744,-7.177,-7.1777,-7.1783,-7.1789,-7.1617,-7.1776,-7.1776,-7.1775,-7.1775,-7.1775,0,-7.1074,-7.1112,-7.118,-7.1257,-7.1315,-7.1305,-7.1364,-7.1413,-7.1486,-7.1537,-7.1596,-7.1684,-7.1754,-7.1791,-7.1861,-7.1905,-7.1902,-7.1922,-7.1919,-7.1926,-7.1803,-7.1781,-7.1924,-7.1924,-7.1923,-7.1923,-7.1923,-7.1923,-7.1158,-7.1256,-7.1274,-7.1393,-7.1429,-7.1512,-7.1547,-7.1594,-7.1635,-7.1735,-7.1794,-7.1819,-7.1865,-7.1938,-7.2002,-7.201,-7.2036,-7.206,-7.2066,-7.195,-7.1935,-7.192,-7.1899,-7.2065,-7.2065,-7.2184,-7.2186,-7.2186]}]]